Weather in Kondrat'yevo

Russia / Saint-Petersburg and Leningrad Oblast     60°38′14″N   28°09′20″E
temp.,
°C
wind,
m/s
gust,
m/s
humid.,
%
clouds,
%
prec.,
mm/h
press.,
hPa
HPBL,
m
18 may, tue
tue1800:00+14wsw1198100 4.6 100670
03:00+13ese0298100 10.6 1005150
06:00+13wnw2597100 0.0 1005268
09:00+16nnw2484100 0.1 1005543
12:00+15n3590100 1.3 1006435
15:00+17ne348561 6.4 1005578
18:00+17n358992 0.3 1004338
21:00+15nne379881 2.9 1003269
19 may, wed
wed1900:00+15e2699100 3.1 1002195
03:00+14ese31199100 4.0 1003353
06:00+14se2995100 0.0 1001270
09:00+17nw018741 1.0 1001364
12:00+21se36722 0.1 1000724
15:00+21sse5127358 1.6 9981438
18:00+15s5119155 1.3 998482
21:00+11ssw51496100 1.3 1000437
20 may, thu
thu2000:00+10s389598 0.0 1002314
03:00+10ssw2494100 0.0 1004199
06:00+10w1392100 0.0 1005248
09:00+11nnw2282100 0.0 1007529
12:00+12nnw3379100 0.0 1007701
15:00+13n3573100 0.1 1006794
18:00+11n3993100 3.3 1004589
21:00+10nnw31096100 9.3 1003576
21 may, fri
fri2100:00+9wnw31195100 2.4 1002593
03:00+9wnw31094100 8.0 1001569
06:00+9w2797100 2.8 1001410
09:00+10wsw478882 3.1 1001591
12:00+14sw69634 0.1 10021126
15:00+14sw711550 0.3 10031550
18:00+12sw712571 0.0 10051035
21:00+8sw613815 0.0 1005622
22 may, sat
sat2200:00+6wsw513825 0.0 1007604
03:00+7sw5129198 0.0 1007652
06:00+8sw4108890 0.0 1008543
09:00+11ssw588075 0.0 1008624
12:00+9ssw31190100 0.3 1008577
15:00+9s41195100 2.9 1007610
18:00+11sw489265 1.0 1007610
21:00+10ssw38945 1.1 1007354